sat.trackr.live / text

‹ back to catalog

STARLINK-34580

NORAD 65808 · 2025-218T

PAYLOAD ACTIVE UNKNOWN

§ Identity

Operator
Country
US
Launch date
2025-09-26
Launch site
AFWTR
Launch vehicle
Mass (kg)
RCS (m²)

Purposes: comms

External: N2YO · Heavens-Above · Gunter

§ Orbital elements

Epoch: 2026-05-25T03:23:10.472352Z

Period
95.64 min
Inclination
97.4509°
Eccentricity
0.0002834
Mean motion
15.05654968 rev/d
Perigee alt
547.5 km
Apogee alt
551.5 km
Semi-major
6,927.6 km
B*
1.1109e-4
RAAN
7.9346°
Arg perigee
84.4333°
Mean anomaly
275.7218°
Rev number
3,647

§ Raw data

STARLINK-345801 65808U 25218T   26145.14109343  .00001545  00000+0  11109-3 0  99972 65808  97.4509   7.9346 0002834  84.4333 275.7218 15.05654968 36475

JSON: /api/v1/satellites/65808 · /tle

For live sub-satellite position, see the globe view (requires WebGL).

§ Visibility from observer

Set your observer location to see the next 7 days of passes ≥ 10°. The values pass through the URL so the page stays shareable.

No JS? Fill the form by hand. The geolocation button needs JavaScript.